📊 Raw Sensor Data

Showing records 42151 to 42175 of 84,995 total

ID Distance (ft) Battery V Battery A Int Temp (°F) Int Humid (%) Ext Temp (°F) Solar V RSSI SNR Time Stamp
42857 15.3 4.03 -5 67 51 65 1.10 -72 8 06/07/2025 08:45 PM
42856 15.3 4.02 -33 69 52 67 4.10 -71 8 06/07/2025 08:30 PM
42855 15.3 3.99 0 72 51 69 4.50 -69 7 06/07/2025 08:15 PM
42854 15.4 4.06 5 75 51 71 4.50 -68 8 06/07/2025 08:00 PM
42853 15.4 4.06 8 78 51 73 4.60 -70 7 06/07/2025 07:45 PM
42852 15.4 4.01 -19 79 53 75 4.50 -72 7 06/07/2025 07:30 PM
42851 15.4 4.09 0 84 51 78 4.50 -72 7 06/07/2025 07:15 PM
42850 15.4 4.05 22 86 51 81 4.50 -69 7 06/07/2025 07:00 PM
42849 15.4 4.07 14 87 52 80 4.50 -70 7 06/07/2025 06:45 PM
42848 15.4 4.02 0 89 53 81 5.10 -69 8 06/07/2025 06:30 PM
42847 15.5 4.02 0 94 51 83 5.10 -70 8 06/07/2025 06:15 PM
42846 15.5 4.13 0 96 49 88 5.10 -71 8 06/07/2025 06:00 PM
42845 15.5 4.02 0 96 49 86 5.10 -73 7 06/07/2025 05:45 PM
42844 15.5 4.02 0 96 49 86 5.10 -72 7 06/07/2025 05:30 PM
42843 15.5 4.02 0 99 48 87 5.10 -72 7 06/07/2025 05:15 PM
42842 15.5 4.04 0 99 46 90 5.10 -71 8 06/07/2025 04:45 PM
42841 15.5 4.02 0 98 46 89 5.10 -71 8 06/07/2025 04:30 PM
42840 15.5 4.02 0 98 45 89 5.10 -72 8 06/07/2025 04:15 PM
42839 15.5 4.02 0 98 45 90 5.10 -72 8 06/07/2025 04:00 PM
42838 15.5 4.04 0 99 43 90 5.10 -72 7 06/07/2025 03:45 PM
42837 15.5 4.02 0 98 43 92 5.10 -72 8 06/07/2025 03:30 PM
42836 15.5 4.02 0 97 43 89 5.10 -71 7 06/07/2025 03:15 PM
42835 15.5 4.02 0 95 43 88 5.20 -72 7 06/07/2025 03:00 PM
42834 15.5 4.02 0 95 42 86 5.10 -72 8 06/07/2025 02:45 PM
42833 15.5 4.14 0 94 41 88 5.10 -71 7 06/07/2025 02:30 PM